Flag for Spain Weather past 2 weeks in Arrecife, Canary Islands, Spain

Now
64 °F

Mild.


Feels Like: 64 °F
Forecast: 63 / 72 °F
Wind: 7 mph from Northeast

Location: Lanzarote / Aeropuerto

Current Time: Apr 27, 2015 at 6:10:25 AM

Latest Report: Apr 27, 2015 at 5:00 AM


Visibility: N/A

Pressure: 30.09 "Hg

Humidity: 81%

Dew point: 58 °F

Location of ArrecifeLocation

Historic Weather in Arrecife — Graph

°F

Arrecife temperature yesterday

Maximum temperature yesterday: 79 °F (at 2:00 PM)
Minimum temperature yesterday: 62 °F (at 5:00 AM)
Average temperature yesterday: 70 °F

Past Weeks' High & Low Weather Summary

 TemperatureHumidityPressure
High79 °F (Apr 26, 2:00 PM)86% (Apr 25, 5:00 AM)30.16 "Hg (Apr 25, 5:00 AM)
Low57 °F (Apr 23, 4:00 AM)35% (Apr 24, 3:00 PM)30.01 "Hg (Apr 17, 8:00 PM)
Average67 °F64%30.08 "Hg
* Reported Apr 12 5:00 AM — Apr 27 4:00 AM, Arrecife, Weather by CustomWeather, © 2015

Note: Actual official high and low records may vary slightly from our data, if they occured in-between our weather recording intervals... More about our weather records

Advertising

Arrecife weather history for previous 24 hours

 ConditionsComfort  
Time TempWeatherWind HumidityBarometerVisibility
4:00 AM
Mon, Apr 27
65 °FMild.8 mph81%30.11 "HgN/A
3:00 AM65 °FMild.7 mph84%30.12 "HgN/A
2:00 AM66 °FMild.10 mph82%30.12 "HgN/A
1:00 AM67 °FPassing clouds.9 mph82%30.14 "Hg19 mi
12:00 AM67 °FMild.9 mph81%30.15 "HgN/A
11:00 PM
Sun, Apr 26
68 °FMild.13 mph80%30.15 "HgN/A
10:00 PM68 °FPassing clouds.14 mph78%30.13 "Hg19 mi
9:00 PM68 °FMild.10 mph74%30.11 "HgN/A
8:00 PM71 °FMild.15 mph67%30.09 "HgN/A
7:00 PM74 °FPassing clouds.16 mph57%30.08 "Hg19 mi
6:00 PM77 °FMild.14 mph49%30.07 "HgN/A
5:00 PM77 °FWarm.15 mph48%30.07 "HgN/A
4:00 PM78 °FScattered clouds.14 mph47%30.09 "Hg19 mi
3:00 PM78 °FWarm.13 mph48%30.10 "HgN/A
2:00 PM79 °FWarm.12 mph44%30.11 "HgN/A
1:00 PM77 °FPartly sunny.10 mph50%30.12 "Hg19 mi
12:00 PM76 °FMild.10 mph51%30.13 "HgN/A
11:00 AM75 °FMild.12 mph52%30.13 "HgN/A
10:00 AM72 °FScattered clouds.12 mph61%30.12 "Hg22 mi
9:00 AM68 °FMild.6 mph72%30.11 "HgN/A
8:00 AM63 °FMild.2 mph84%30.10 "HgN/A
7:00 AM63 °FPassing clouds.6 mph85%30.09 "Hg25 mi
6:00 AM63 °FMild.8 mph86%30.07 "HgN/A
Weather by CustomWeather, © 2015

See weather overviewHow to use our weather pages